Weather Roundup
Issued by NWS Chicago, IL

Home | Current Version | Previous Version | Graphics & Text | Print | Product List | Glossary On
Versions: 1 2 3 4 5 6 7 8 9 10 11 12 13 14 15 16 17 18 19 20 21 22 23 24 25 26 27 28 29 30 31 32 33 34 35 36 37 38 39 40 41 42 43 44 45 46 47 48 49 50
000
NZUS59 KLOT 190310
HRRLOT

CHICAGO AREA WEATHER ROUNDUP
NATIONAL WEATHER SERVICE CHICAGO/ROMEOVILLE IL
1000 PM CDT THU SEP 18 2014

NOTE: "FAIR" INDICATES FEW OR NO CLOUDS BELOW 12,000 FEET WITH NO
SIGNIFICANT WEATHER AND/OR OBSTRUCTIONS TO VISIBILITY.

* THESE STATIONS ARE NOT UNDER NWS QUALITY CONTROL. THEY ALSO MAY NOT
  REPORT WEATHER SUCH AS PRECIPITATION OR FOG.

ILZ005-006-012>014-019>023-190400-
NORTHEAST ILLINOIS

CITY           SKY/WX    TMP DP  RH WIND       PRES   REMARKS
OHARE          PTCLDY    58  53  84 N5        30.15S
MIDWAY         PTCLDY    61  57  87 NE7       30.15S
AURORA         CLEAR     55  51  86 NE5       30.14R
LANSING*       CLEAR     59  57  92 NE5       30.15S
JOLIET*        CLEAR     56  52  86 NE3       30.15R FOG
WAUKEGAN       CLEAR     50  49  96 N3        30.15S FOG
DUPAGE AIRPORT CLEAR     56  52  86 NE6       30.14S
WHEELING       CLEAR     55  52  89 CALM      30.17S
KANKAKEE*      CLEAR     56  55  95 NE6       30.14R FOG
MORRIS*        CLEAR     56  55  99 CALM      30.13S FOG
LEWIS AIRPORT* CLEAR     56  55  94 NE9       30.14S
NORTHERLY IS     N/A     60  57  89 N8          N/A
$$

WIZ051-052-058>065-066-070>072-190400-
SOUTHEAST WISCONSIN

CITY           SKY/WX    TMP DP  RH WIND       PRES   REMARKS
MILWAUKEE      MOCLDY    54  50  86 NE7       30.17F
KENOSHA*       CLEAR     52  51  97 NE6       30.16F
RACINE*        CLEAR     54  50  86 N3        30.18S
BURLINGTON     MOCLDY    51  50  96 CALM      30.17R
WAUKESHA       PTCLDY    48  46  93 CALM      30.18R
WEST BEND      FOG       46  45  93 CALM      30.18R VSB 1
$$

INZ001>003-010>013-019-020-190400-
NORTHWEST INDIANA

CITY           SKY/WX    TMP DP  RH WIND       PRES   REMARKS
GARY*          PTCLDY    62  58  89 N7        30.15S
MICHIGAN CITY* NOT AVBL
RENSSELAER*    NOT AVBL
VALPARAISO     CLEAR     53  51  93 NE3       30.15R
$$

LMZ740>746-190400-
SOUTHERN LAKE MICHIGAN

STATION/POSITION TIME  SKY/WX   TEMP WIND        PRES    VSBY
                                AIR  DIR/SP/G
                 (UTC)          (F)  (DEG/KT/KT) (MB)    (MI)
HARRISON CRIB    0300            61   30/ 11/ 13   N/A
BURNHAM HARBOR   0300            60   40/  7/  9   N/A
CALUMET HARBOR   0300            61   10/  6/  8 1019.7S
BURNS HARBOR     NOT AVBL
MICHIGAN CITY    0300            61   40/  7/  9   N/A
$$

ABBREVIATIONS USED IN REMARKS
   TC - TEMPERATURE IN CELSIUS
  WCI - WIND CHILL INDEX
   HX - HEAT INDEX
  VSB - VISIBILITY
$$


USA.gov is the U.S. government's official web portal to all federal, state and local government web resources and services.